Temp
8 9 10 9 10 11 11 10 10 9 10 9 10 10 10 11 11 11 11 11 11 12
8 9 10 10 11 11 10 10 10 10 10 10 11 11 11 11 11 11 11 11 11 12
9 9 9 10 10 10 10 11 10 10 10 10 11 11 11 11 11 11 11 11 11 12
9 9 9 9 9 9 9 10 10 10 10 11 11 11 11 11 11 11 11 11 11 11
11 9 9 9 8 8 9 10 9 10 10 10 10 11 11 11 10 10 10 10 10 11
12 11 11 9 9 9 9 8 9 9 10 10 10 10 10 10 10 10 10 11 11 11
12 13 12 12 11 10 9 9 9 8 9 9 9 9 10 10 10 10 10 10 11 11
12 12 12 11 11 11 11 10 9 9 9 9 10 10 10 10 10 10 10 10 10 10
10 10 11 11 11 11 11 11 10 9 9 9 11 11 11 10 10 10 9 9 10 9
10 9 9 10 10 11 11 11 11 11 10 10 10 12 12 11 10 9 9 10 10 10
11 10 9 9 9 10 10 11 11 12 12 12 12 13 13 11 10 9 10 9 9 10
9 11 11 11 10 9 9 9 10 10 11 11 12 12 12 11 9 9 9 9 9 9
7 7 8 9 10 11 10 10 10 10 10 10 10 10 11 11 10 10 10 10 10 10
6 6 6 5 5 6 9 10 11 10 10 10 10 10 10 10 10 10 10 10 10 9
Height
1447 1449 1452 1456 1460 1464 1469 1473 1480 1485 1489 1492 1496 1502 1507 1512 1514 1517 1519 1521 1524 1526
1444 1448 1450 1455 1459 1464 1468 1472 1476 1480 1485 1490 1494 1497 1501 1504 1506 1510 1513 1514 1517 1519
1439 1446 1450 1454 1457 1461 1464 1468 1472 1476 1480 1484 1488 1491 1495 1497 1500 1503 1505 1507 1510 1512
1435 1440 1445 1449 1452 1455 1459 1463 1466 1470 1474 1477 1481 1484 1487 1489 1493 1494 1497 1499 1500 1502
1430 1434 1437 1441 1445 1450 1452 1455 1460 1464 1467 1470 1473 1476 1479 1481 1484 1486 1487 1490 1492 1491
1429 1430 1431 1433 1438 1441 1445 1449 1452 1455 1458 1461 1463 1466 1469 1472 1474 1476 1477 1480 1481 1481
1426 1427 1428 1430 1431 1433 1436 1439 1442 1444 1447 1450 1453 1454 1457 1460 1462 1464 1465 1468 1469 1470
1425 1426 1427 1428 1429 1429 1429 1430 1433 1435 1436 1439 1441 1442 1444 1447 1450 1452 1453 1455 1456 1456
1418 1419 1420 1421 1423 1425 1424 1424 1424 1424 1425 1427 1426 1428 1432 1436 1438 1440 1442 1441 1442 1444
1413 1412 1413 1413 1415 1414 1415 1418 1416 1416 1415 1415 1415 1416 1419 1424 1427 1428 1428 1429 1431 1432
1408 1407 1406 1406 1406 1407 1405 1406 1406 1406 1405 1406 1405 1404 1404 1408 1413 1414 1414 1415 1417 1418
1403 1402 1400 1399 1398 1399 1396 1394 1392 1390 1392 1393 1393 1394 1397 1399 1401 1401 1402 1404 1404 1404
1398 1395 1392 1391 1390 1388 1386 1384 1383 1381 1381 1381 1379 1382 1384 1387 1389 1388 1389 1390 1391 1391
1395 1391 1387 1383 1380 1378 1376 1374 1372 1372 1371 1371 1370 1369 1369 1373 1375 1374 1375 1376 1376 1377
Wind_Speed
30 29 30 36 41 44 49 51 44 41 37 34 33 31 36 41 38 35 39 34 33 33
30 32 34 40 42 39 41 44 49 45 44 42 43 43 44 41 40 38 40 38 36 36
29 32 35 38 39 39 41 44 45 45 43 42 45 45 42 44 44 42 42 41 42 41
32 33 34 38 39 39 40 46 48 47 45 45 46 47 48 46 45 47 45 47 47 45
25 32 36 37 38 38 39 42 48 49 50 50 50 50 52 52 53 53 52 50 49 51
26 28 32 35 39 39 40 42 44 48 55 55 54 54 55 57 57 57 58 57 56 57
29 29 30 30 32 36 39 42 45 47 51 53 55 58 62 61 62 64 66 66 66 64
32 32 33 34 35 35 36 39 42 45 47 48 53 55 57 59 62 66 64 66 66 67
26 30 36 38 39 39 40 42 41 44 48 50 51 53 54 56 58 58 60 61 63 62
8 12 24 34 34 42 46 46 47 46 45 48 52 52 54 53 53 55 57 58 58 58
13 13 15 14 24 38 42 43 50 51 50 51 50 48 51 53 54 55 58 58 57 57
18 17 19 21 22 22 31 39 52 52 54 54 54 51 49 49 52 56 57 56 58 60
25 25 24 23 24 28 31 33 43 48 51 53 55 53 52 49 49 55 59 60 63 62
23 25 25 26 27 27 28 33 35 39 48 50 52 54 55 52 52 53 59 58 59 63
Wind_Direction
209 211 210 198 192 193 200 205 203 211 218 212 212 208 215 219 222 226 219 222 234 236
210 210 207 199 199 206 208 211 211 213 215 215 213 213 217 220 221 226 227 232 234 245
212 214 212 209 215 221 224 220 221 218 218 218 218 221 223 226 228 231 233 237 238 239
213 216 221 226 229 230 230 227 228 227 226 225 224 227 231 232 232 233 236 239 242 244
228 221 225 229 233 234 233 231 231 232 232 232 232 231 232 235 237 239 241 243 245 248
238 236 234 233 235 239 238 237 236 236 237 239 241 240 239 239 240 242 245 248 251 252
252 251 248 246 244 241 240 239 240 241 240 241 243 245 246 246 246 247 250 253 254 257
262 261 262 260 255 253 249 247 244 244 246 245 243 244 245 247 248 250 253 254 255 258
272 273 268 264 260 259 258 256 251 250 248 248 249 248 247 249 252 253 253 255 258 259
262 265 266 271 274 267 261 260 259 258 254 252 254 256 254 252 251 254 256 257 258 259
293 279 258 252 248 258 271 269 264 262 263 260 261 263 262 259 255 255 256 258 260 262
324 301 286 282 270 262 254 254 260 268 265 260 262 264 264 261 254 253 255 258 256 257
332 326 316 299 288 280 275 272 256 256 257 257 263 264 261 259 256 253 252 254 251 253
330 325 322 321 314 305 289 278 278 255 250 249 247 247 254 254 251 253 250 251 251 250